Вернуться в каталог

COSMOS 589

АктивенВоенныеLEO
NORAD 6846·PAYLOAD·🇷🇺 Russia

Запущен Oct 2, 1973 с Plesetsk Cosmodrome

Loading…

Ближайшие Пролёты (ближайшие 24 часа)

TLE

СвежийSource: Space-Track

Эпоха: Sep 14, 2026, 06:52 UTC

1 06846U 73069B   26257.28631391 -.00000013  00000-0  17486-4 0  9999
2 06846  74.0045  11.8653 0046405 105.3723 280.9739 12.53236906422351

Отслеживайте COSMOS 589 в реальном времени с AllMySat

Download on the App Store